Sacramento, CA

1:29 AM PST on February 08, 2016 (GMT -0800)
Sacramento Executive

Weather History for KSAC - November, 2011

Change the Weather History Date:

Friday, November 25, 2011

  Actual Average Record
Temperature  
Mean Temperature 51 °F -  
Max Temperature 59 °F 60 °F 77 °F (1975)
Min Temperature 43 °F 41 °F 26 °F (1993)
Degree Days  
Heating Degree Days 14    
Month to date heating degree days 321  
Cooling Degree Days 0    
Month to date cooling degree days 0  
Year to date cooling degree days 1153  
Moisture  
Dew Point 45 °F    
Average Humidity 80    
Maximum Humidity 93    
Minimum Humidity 67    
Precipitation  
Precipitation 0.00 in 0.08 in 1.14 in (1989)
Month to date precipitation 0.74 1.65  
Year to date precipitation 16.68 14.84  
Since 1 July precipitation 2.08  
Sea Level Pressure  
Sea Level Pressure 30.34 in    
Wind  
Wind Speed 3 mph (NW)    
Max Wind Speed 15 mph    
Max Gust Speed 17 mph    
Visibility 6 miles    
Events Fog    
T = Trace of Precipitation, MM = Missing Value Source: NWS Daily Summary

Daily Weather History Graph

Daily Weather History Graph

Search for Another Location

Airport or City:

Trip Planner

Search our weather history database for the weather conditions in past years. The results will help you decide how hot, cold, wet, or windy it might be!

Date:

Astronomy

Nov. 25, 2011 Rise Set
Actual Time 6:58 AM PST 4:47 PM PST
Civil Twilight 6:29 AM PST 5:16 PM PST
Nautical Twilight 5:56 AM PST 5:48 PM PST
Astronomical Twilight 5:25 AM PST 6:20 PM PST
Moon 7:31 AM PST (11/25) 5:21 PM PST (11/25)
Length of Visible Light 10h 46m
Length of Day
9h 48m
New Moon, 0% of the Moon is Illuminated
Nov 25
New Moon
Dec 2
First Quarter
Dec 10
Full
Dec 17
Last Quarter
Dec 24
New

Hourly Weather History & Observations

Time (PST) Temp. Windchill Dew Point Humidity Pressure Visibility Wind Dir Wind Speed Gust Speed Precip Events Conditions
12:53 AM 46.0 °F - 45.0 °F 96% 30.23 in 8.0 mi Calm Calm - N/A   Overcast
1:53 AM 46.0 °F - 44.1 °F 93% 30.27 in 5.0 mi Calm Calm - N/A   Partly Cloudy
2:06 AM 44.6 °F - 42.8 °F 93% 30.27 in 1.5 mi Calm Calm - N/A   Partly Cloudy
2:09 AM 44.6 °F - 42.8 °F 93% 30.26 in 0.8 mi Calm Calm - N/A   Mist
2:19 AM 44.6 °F 43.1 °F 42.8 °F 93% 30.27 in 1.0 mi East 3.5 mph - N/A   Clear
2:24 AM 42.8 °F 41.1 °F 42.8 °F 100% 30.27 in 3.0 mi ESE 3.5 mph - N/A   Partly Cloudy
2:53 AM 46.9 °F - 45.0 °F 93% 30.27 in 9.0 mi ESE 4.6 mph - N/A   Overcast
3:53 AM 45.0 °F 42.6 °F 43.0 °F 93% 30.26 in 9.0 mi South 4.6 mph - N/A   Scattered Clouds
4:53 AM 44.1 °F - 43.0 °F 96% 30.28 in 6.0 mi Calm Calm - N/A   Mostly Cloudy
5:53 AM 45.0 °F 43.5 °F 43.0 °F 93% 30.28 in 10.0 mi SE 3.5 mph - N/A   Overcast
6:53 AM 44.1 °F - 43.0 °F 96% 30.30 in 6.0 mi Calm Calm - N/A   Overcast
7:53 AM 46.0 °F - 45.0 °F 96% 30.30 in 10.0 mi Calm Calm - N/A   Clear
8:53 AM 48.9 °F - 46.0 °F 90% 30.32 in 10.0 mi Calm Calm - N/A   Scattered Clouds
9:00 AM 50.0 °F - 46.4 °F 87% 30.33 in 10.0 mi Calm Calm - N/A   Mostly Cloudy
9:53 AM 52.0 °F - 48.0 °F 86% 30.35 in 10.0 mi Calm Calm - N/A   Scattered Clouds
10:53 AM 55.9 °F - 48.9 °F 77% 30.35 in 10.0 mi WNW 4.6 mph - N/A   Clear
11:53 AM 55.9 °F - 48.9 °F 77% 30.35 in 10.0 mi WNW 9.2 mph - N/A   Clear
12:53 PM 57.2 °F - 48.2 °F 72% 30.33 in 10.0 mi NW 8.1 mph - N/A   Clear
1:53 PM 59.0 °F - 48.9 °F 69% 30.33 in 10.0 mi NW 8.1 mph - N/A   Clear
2:53 PM 59.0 °F - 48.9 °F 69% 30.33 in 10.0 mi NW 9.2 mph - N/A   Clear
3:50 PM 55.4 °F - 48.2 °F 77% 30.34 in 10.0 mi North 13.8 mph 17.3 mph N/A   Mostly Cloudy
3:53 PM 55.9 °F - 48.9 °F 77% 30.34 in 10.0 mi NNW 11.5 mph - N/A   Mostly Cloudy
4:06 PM 55.4 °F - 48.2 °F 77% 30.34 in 10.0 mi NNW 11.5 mph - N/A   Scattered Clouds
4:21 PM 55.4 °F - 48.2 °F 77% 30.34 in 10.0 mi NNW 12.7 mph - N/A   Mostly Cloudy
4:37 PM 53.6 °F - 48.2 °F 82% 30.34 in 10.0 mi NNW 9.2 mph - N/A   Scattered Clouds
4:53 PM 54.0 °F - 48.0 °F 80% 30.34 in 10.0 mi NNW 8.1 mph - N/A   Clear
5:11 PM 53.6 °F - 48.2 °F 82% 30.35 in 10.0 mi NNW 9.2 mph - N/A   Mostly Cloudy
5:53 PM 54.0 °F - 48.0 °F 80% 30.36 in 10.0 mi NNW 9.2 mph - N/A   Mostly Cloudy
6:06 PM 53.6 °F - 48.2 °F 82% 30.36 in 10.0 mi NNW 5.8 mph - N/A   Scattered Clouds
6:53 PM 51.1 °F - 46.9 °F 86% 30.36 in 10.0 mi Calm Calm - N/A   Clear
7:53 PM 48.0 °F - 46.0 °F 93% 30.37 in 7.0 mi Calm Calm - N/A   Clear
8:53 PM 46.9 °F - 45.0 °F 93% 30.37 in 2.5 mi Calm Calm - N/A   Clear
9:10 PM 46.4 °F 45.2 °F 46.4 °F 100% 30.37 in 3.0 mi WNW 3.5 mph - N/A   Clear
9:36 PM 44.6 °F - 44.6 °F 100% 30.38 in 1.8 mi Calm Calm - N/A   Clear
9:48 PM 46.4 °F - 44.6 °F 93% 30.38 in 0.8 mi Calm Calm - N/A   Clear
9:53 PM 46.4 °F - 44.6 °F 93% 30.38 in 0.8 mi Calm Calm - N/A   Clear
10:00 PM 46.4 °F - 44.6 °F 93% 30.38 in 1.0 mi Calm Calm - N/A   Clear
10:08 PM 46.4 °F - 44.6 °F 93% 30.38 in 0.5 mi Calm Calm - N/A Fog Fog
10:17 PM 44.6 °F - 42.8 °F 93% 30.38 in 0.2 mi Calm Calm - N/A Fog Fog
10:32 PM 44.6 °F - 44.6 °F 100% 30.38 in 0.2 mi Calm Calm - N/A Fog Fog
10:53 PM 44.1 °F - 43.0 °F 96% 30.38 in 0.2 mi Calm Calm - N/A Fog Fog
11:00 PM 42.8 °F - 42.8 °F 100% 30.38 in 0.5 mi Calm Calm - N/A Fog Fog
11:32 PM 42.8 °F - 41.0 °F 93% 30.38 in 0.2 mi Calm Calm - N/A Fog Fog
11:44 PM 42.8 °F - 41.0 °F 93% 30.38 in 0.2 mi Calm Calm - N/A Fog Fog
11:53 PM 42.1 °F 40.2 °F 41.0 °F 96% 30.38 in 0.2 mi WSW 3.5 mph - N/A Fog Fog